DW1871 Weather Reports


time (UTC)temp
C
wind
direction
speed
KPH
gust
KPH
rain 1hr
cm
rain 24hr
cm
rain mn
cm
humidity
%
barometer
mb
20260507033018 12 266 0.0 0.0 0.00 0.00 0.00 68 1012.7
20260507031518 13 257 0.0 0.0 0.00 0.00 0.00 66 1014.1
20260507030019 13 257 0.0 0.0 0.00 0.00 0.00 64 1014.0
20260507024517 13 258 0.0 0.0 0.00 0.00 0.00 64 1014.0
20260507023016 14 256 0.0 0.0 0.00 0.00 0.00 68 1013.7
20260507021516 14 360 0.0 0.0 0.00 0.00 0.00 68 1014.1
20260507020016 14 254 0.0 0.0 0.00 0.00 0.00 66 1013.8
20260507014520 15 253 0.0 0.0 0.00 0.00 0.00 62 1013.5
20260507013015 16 253 0.0 0.0 0.00 0.00 0.00 61 1013.2
20260507011514 17 360 0.0 0.0 0.00 0.00 0.00 57 1012.8
20260507010027 18 254 0.0 0.0 0.00 0.00 0.00 49 1012.2
20260507004513 20 254 0.0 0.0 0.00 0.00 0.00 43 1012.2
20260507003013 20 259 1.6 0.0 0.00 0.00 0.00 40 1012.2
20260507001512 20 226 3.2 0.0 0.00 0.00 0.00 44 1011.9
20260507000012 20 271 1.6 0.0 0.00 0.00 0.00 43 1011.8
20260506234518 20 238 3.2 0.0 0.00 0.00 0.00 43 1011.8
20260506233009 21 225 1.6 0.0 0.00 0.00 0.00 42 1012.0
20260506231509 21 221 3.2 0.0 0.00 0.00 0.00 45 1012.3
20260506230006 20 241 3.2 0.0 0.00 0.00 0.00 45 1012.4
20260506224516 20 213 3.2 0.0 0.00 0.00 0.00 45 1012.4
20260506223005 20 245 3.2 0.0 0.00 0.00 0.00 44 1012.4
20260506221504 20 192 3.2 0.0 0.00 0.00 0.00 47 1012.6
20260506220002 20 360 3.2 0.0 0.00 0.00 0.00 47 1013.1
20260506214559 19 211 3.2 0.0 0.00 0.00 0.00 47 1013.1
20260506213057 19 278 1.6 0.0 0.00 0.00 0.00 48 1013.4
20260506211558 18 222 3.2 0.0 0.00 0.00 0.00 48 1013.5
20260506210055 18 247 3.2 0.0 0.00 0.00 0.00 48 1013.8
20260506204551 17 219 4.8 0.0 0.00 0.00 0.00 51 1014.1
20260506203058 17 258 4.8 0.0 0.00 0.00 0.00 53 1014.1
20260506201550 17 207 3.2 0.0 0.00 0.00 0.00 54 1013.8
20260506200048 17 229 4.8 0.0 0.00 0.00 0.00 55 1013.8
20260506194551 17 229 3.2 0.0 0.00 0.00 0.00 54 1013.9
20260506193051 17 238 3.2 0.0 0.00 0.00 0.00 55 1014.2
20260506191543 16 254 3.2 0.0 0.00 0.00 0.00 56 1014.4
20260506190041 16 289 1.6 0.0 0.00 0.00 0.00 59 1014.6
20260506184540 15 270 4.8 0.0 0.00 0.00 0.00 60 1014.5
20260506183042 15 250 4.8 0.0 0.00 0.00 0.00 59 1014.6
20260506181552 15 250 4.8 0.0 0.00 0.00 0.00 57 1014.2
20260506180037 16 202 1.6 0.0 0.00 0.00 0.00 56 1014.5
20260506174534 15 232 1.6 0.0 0.00 0.00 0.00 54 1014.8
20260506173038 14 233 3.2 0.0 0.00 0.00 0.00 55 1014.8
20260506171529 13 255 1.6 0.0 0.00 0.00 0.00 57 1014.5
20260506170027 13 257 0.0 0.0 0.00 0.00 0.00 55 1014.8
20260506164524 12 261 0.0 0.0 0.00 0.00 0.00 57 1015.0
20260506163024 11 265 1.6 0.0 0.00 0.00 0.00 64 1014.5
20260506161524 12 273 3.2 0.0 0.00 0.00 0.00 62 1014.5
20260506160034 12 17 0.0 0.0 0.00 0.00 0.00 54 1014.6
20260506154521 11 17 0.0 0.0 0.00 0.00 0.00 59 1015.1
20260506153014 10 17 0.0 0.0 0.00 0.00 0.00 68 1015.3
20260506151511 8 17 0.0 0.0 0.00 0.00 0.00 80 1015.6
20260506150006 6 25 0.0 0.0 0.00 0.00 0.00 85 1015.4
20260506144502 6 25 0.0 0.0 0.00 0.00 0.00 86 1015.6
20260506143100 5 25 0.0 0.0 0.00 0.00 0.00 86 1015.8
20260506141558 5 25 0.0 0.0 0.00 0.00 0.00 85 1015.5
20260506140058 5 25 0.0 0.0 0.00 0.00 0.00 85 1015.5
20260506134558 5 25 0.0 0.0 0.00 0.00 0.00 86 1015.4
20260506133106 4 24 0.0 0.0 0.00 0.00 0.00 86 1015.1
20260506131602 4 25 0.0 0.0 0.00 0.00 0.00 85 1015.0
20260506130057 4 25 1.6 0.0 0.00 0.00 0.00 84 1014.9
20260506124559 4 26 0.0 0.0 0.00 0.00 0.00 85 1014.8
20260506123053 4 26 0.0 0.0 0.00 0.00 0.00 85 1014.7
20260506121552 4 9 1.6 0.0 0.00 0.00 0.00 86 1015.0
20260506120051 4 327 0.0 0.0 0.00 0.00 0.00 87 1015.0
20260506114549 4 325 0.0 0.0 0.00 0.00 0.00 88 1015.0
20260506113049 3 313 0.0 0.0 0.00 0.00 0.00 88 1014.9
20260506111549 3 311 0.0 0.0 0.00 0.00 0.00 89 1014.9
20260506110048 3 311 0.0 0.0 0.00 0.00 0.00 89 1015.3
20260506104550 3 281 0.0 0.0 0.00 0.00 0.00 89 1015.5
20260506103047 3 260 0.0 0.0 0.00 0.00 0.00 89 1015.5
20260506101546 3 260 0.0 0.0 0.00 0.00 0.00 88 1015.1
20260506100045 3 259 0.0 0.0 0.00 0.00 0.00 88 1015.2
20260506094556 3 259 0.0 0.0 0.00 0.00 0.00 88 1015.3
20260506093043 3 259 0.0 0.0 0.00 0.00 0.00 88 1015.3
20260506091543 3 259 0.0 0.0 0.00 0.00 0.00 88 1015.2
20260506090041 3 258 0.0 0.0 0.00 0.00 0.00 88 1015.4
20260506084543 3 258 0.0 0.0 0.00 0.00 0.00 88 1015.6
20260506083040 3 258 0.0 0.0 0.00 0.00 0.00 87 1015.7
20260506081538 3 258 0.0 0.0 0.00 0.00 0.00 87 1015.4
20260506073038 3 258 0.0 0.0 0.00 0.00 0.00 88 1015.5
20260506071536 3 257 0.0 0.0 0.00 0.00 0.00 87 1015.5
20260506061530 4 257 0.0 0.0 0.00 0.00 0.36 86 1014.3
20260506044524 5 257 0.0 0.0 0.00 0.00 0.36 86 1013.3
20260506043023 5 257 0.0 0.0 0.00 0.00 0.36 85 1013.1
20260506041522 5 257 0.0 0.0 0.00 0.00 0.36 85 1013.7
20260506040022 5 257 0.0 0.0 0.00 0.00 0.36 85 1013.3
20260506034520 5 257 0.0 0.0 0.00 0.00 0.36 85 1013.0